Home > Weather > Victorville > Past weeks

Flag for USA Past Weather in Victorville, California, USA — Yesterday and Last 2 Weeks

Now
88 °F

Sunny.


Feels Like: 85 °F
Forecast: 70 / 101 °F
Wind: No wind

Location: George Air Force Base / Victorvi

Current Time: Jun 28, 2016 at 8:46:25 PM

Latest Report: Jun 28, 2016 at 8:15 PM


Visibility: 10 mi

Pressure: 30.00 "Hg (27.33 "Hg at 830m altitude)

Humidity: 24%

Dew Point: 46 °F

Location of VictorvilleLocation

Past Weather in Victorville — Graph

°F

Victorville Temperature Yesterday

Maximum temperature yesterday: 106 °F (at 1:15 PM)
Minimum temperature yesterday: 72 °F (at 4:55 AM)
Average temperature yesterday: 89 °F

High & Low Weather Summary for the Past Weeks

 TemperatureHumidityPressure
High108 °F (Jun 20, 1:35 PM)67% (Jun 15, 5:15 AM)30.15 "Hg (Jun 15, 5:15 AM)
Low52 °F (Jun 16, 4:15 AM)5% (Jun 23, 11:55 AM)29.85 "Hg (Jun 14, 5:55 PM)
Average82 °F20%30.01 "Hg
* Reported Jun 13 7:15 PM — Jun 28 7:35 PM, Victorville, Weather by CustomWeather, © 2016

Note: Actual official high and low records may vary slightly from our data, if they occured in-between our weather recording intervals... More about our weather records

Advertising

Victorville Weather History for the Previous 24 Hours

Scroll right to see more
 ConditionsComfort  
Time TempWeatherWind HumidityBarometerVisibility
7:35 PM
Tue, Jun 28
91 °FSunny.15 mph20%30.00 "Hg10 mi
7:15 PM93 °FScattered clouds.18 mph17%29.99 "Hg10 mi
6:55 PM97 °FScattered clouds.17 mph13%29.99 "Hg10 mi
6:35 PM95 °FSunny.13 mph14%29.99 "Hg10 mi
6:15 PM97 °FSunny.9 mph13%29.99 "Hg10 mi
5:35 PM99 °FSunny.13 mph13%29.99 "Hg10 mi
5:15 PM99 °FSunny.13 mph13%29.99 "Hg10 mi
4:55 PM97 °FSunny.13 mph13%30.00 "Hg10 mi
4:35 PM97 °FSunny.12 mph14%30.00 "Hg10 mi
4:15 PM97 °FScattered clouds.10 mph16%30.01 "Hg10 mi
3:55 PM93 °FSunny.8 mph19%30.02 "Hg10 mi
3:35 PM93 °FScattered clouds.No wind20%30.02 "Hg10 mi
3:15 PM91 °FScattered clouds.No wind21%30.03 "Hg10 mi
2:55 PM90 °FScattered clouds.No wind24%30.03 "Hg10 mi
2:35 PM90 °FLight rain. Broken clouds.12 mph22%30.04 "Hg10 mi
2:15 PM82 °FLight rain. Cloudy.17 mph30%30.06 "Hg7 mi
1:55 PM93 °FBroken clouds.20 mph16%30.07 "Hg10 mi
1:35 PM93 °FLight rain. Broken clouds.No wind16%30.07 "Hg10 mi
1:15 PM91 °FScattered clouds.No wind17%30.07 "Hg10 mi
12:55 PM93 °FScattered clouds.No wind15%30.08 "Hg10 mi
12:35 PM91 °FScattered clouds.No wind16%30.08 "Hg7 mi
12:15 PM91 °FScattered clouds.No wind16%30.08 "Hg10 mi
11:55 AM91 °FScattered clouds.No wind16%30.08 "Hg10 mi
11:35 AM91 °FScattered clouds.No wind16%30.09 "Hg10 mi
11:15 AM91 °FScattered clouds.No wind16%30.09 "Hg10 mi
10:55 AM90 °FLight rain. Scattered clouds.No wind20%30.10 "Hg10 mi
10:35 AM90 °FSunny.No wind18%30.09 "Hg10 mi
10:15 AM90 °FScattered clouds.No wind18%30.09 "Hg10 mi
9:55 AM90 °FScattered clouds.No wind20%30.09 "Hg10 mi
9:35 AM88 °FScattered clouds.5 mph21%30.09 "Hg10 mi
9:15 AM90 °FScattered clouds.No wind20%30.09 "Hg10 mi
8:55 AM88 °FScattered clouds.No wind21%30.08 "Hg10 mi
8:35 AM88 °FScattered clouds.No wind21%30.08 "Hg10 mi
8:15 AM86 °FScattered clouds.No wind24%30.08 "Hg10 mi
7:55 AM84 °FScattered clouds.No wind23%30.07 "Hg10 mi
7:35 AM84 °FScattered clouds.No wind23%30.07 "Hg10 mi
7:15 AM84 °FScattered clouds.3 mph23%30.06 "Hg10 mi
6:55 AM82 °FSunny.No wind25%30.06 "Hg10 mi
6:35 AM82 °FClear.No wind26%30.05 "Hg10 mi
6:15 AM82 °FPassing clouds.9 mph25%30.04 "Hg10 mi
5:55 AM84 °FPassing clouds.15 mph22%30.03 "Hg10 mi
5:35 AM82 °FMostly cloudy.14 mph25%30.05 "Hg10 mi
5:15 AM82 °FLight rain. Partly cloudy.15 mph25%30.03 "Hg10 mi
4:55 AM81 °FPassing clouds.No wind30%30.07 "Hg10 mi
4:15 AM81 °FClear.No wind30%30.04 "Hg10 mi
3:55 AM81 °FClear.8 mph30%30.04 "Hg10 mi
3:35 AM81 °FClear.No wind30%30.03 "Hg10 mi
3:15 AM81 °FClear.No wind30%30.03 "Hg10 mi
2:55 AM81 °FClear.6 mph30%30.03 "Hg10 mi
2:35 AM82 °FClear.No wind28%30.03 "Hg10 mi
2:15 AM82 °FClear.5 mph28%30.03 "Hg10 mi
1:55 AM82 °FClear.No wind28%30.04 "Hg10 mi
1:35 AM82 °FClear.No wind30%30.03 "Hg10 mi
1:15 AM82 °FClear.7 mph30%30.03 "Hg10 mi
12:55 AM82 °FClear.7 mph30%30.04 "Hg10 mi
12:35 AM84 °FClear.6 mph27%30.04 "Hg10 mi
12:15 AM84 °FClear.7 mph29%30.04 "Hg10 mi
11:55 PM
Mon, Jun 27
84 °FClear.8 mph29%30.04 "Hg10 mi
11:35 PM84 °FClear.8 mph29%30.04 "Hg10 mi
11:15 PM84 °FClear.8 mph29%30.04 "Hg10 mi
10:55 PM84 °FClear.8 mph29%30.05 "Hg10 mi
10:15 PM88 °FClear.7 mph25%30.05 "Hg10 mi
9:55 PM90 °FClear.6 mph24%30.05 "Hg10 mi
9:15 PM90 °FPassing clouds.8 mph24%30.03 "Hg10 mi
8:55 PM91 °FSunny.9 mph23%30.03 "Hg10 mi
8:35 PM91 °FSunny.5 mph20%30.02 "Hg10 mi
8:15 PM93 °FSunny.No wind19%30.01 "Hg10 mi
Weather by CustomWeather, © 2016

See weather overviewHow to use our weather pages